timestamp,wind_dir_avg,wind_spd_max_dir,wind_spd_avg,wind_spd_gust,battery_voltage,lat,long
2018-02-25 00:00:00+00:00,41.0,49.0,10.56,12.46,,47.59359,-54.27349
2018-02-25 00:10:00+00:00,36.0,43.0,9.31,10.97,,47.59359,-54.27349
2018-02-25 00:20:00+00:00,39.0,39.0,9.84,10.74,,47.59359,-54.27349
2018-02-25 00:30:00+00:00,31.0,24.0,10.53,12.54,,47.59359,-54.27349
2018-02-25 00:40:00+00:00,27.0,28.0,9.23,11.01,,47.59359,-54.27349
2018-02-25 00:50:00+00:00,20.0,22.0,10.45,12.11,,47.59359,-54.27349
2018-02-25 01:00:00+00:00,23.0,25.0,10.68,12.37,,47.59359,-54.27349
2018-02-25 01:10:00+00:00,13.0,15.0,10.89,13.24,,47.59359,-54.27349
2018-02-25 01:20:00+00:00,23.0,33.0,8.72,9.77,,47.59359,-54.27349
2018-02-25 01:30:00+00:00,17.0,25.0,9.19,11.21,,47.59359,-54.27349
2018-02-25 01:40:00+00:00,23.0,30.0,9.51,11.42,,47.59359,-54.27349
2018-02-25 01:50:00+00:00,30.0,35.0,10.32,11.65,,47.59359,-54.27349
2018-02-25 02:00:00+00:00,24.0,15.0,9.2,11.05,,47.59359,-54.27349
2018-02-25 02:10:00+00:00,19.0,26.0,7.83,9.4,,47.59359,-54.27349
2018-02-25 02:20:00+00:00,22.0,11.0,7.93,9.6,,47.59359,-54.27349
2018-02-25 02:30:00+00:00,22.0,19.0,8.75,10.14,,47.59359,-54.27349
2018-02-25 02:40:00+00:00,20.0,37.0,7.88,9.4,,47.59359,-54.27349
2018-02-25 02:50:00+00:00,20.0,29.0,10.02,12.16,,47.59359,-54.27349
2018-02-25 03:00:00+00:00,21.0,23.0,8.69,10.32,,47.59359,-54.27349
2018-02-25 03:10:00+00:00,21.0,17.0,9.68,11.43,,47.59359,-54.27349
2018-02-25 03:20:00+00:00,14.0,11.0,10.94,12.23,,47.59359,-54.27349
2018-02-25 03:30:00+00:00,14.0,12.0,11.29,13.06,,47.59359,-54.27349
2018-02-25 03:40:00+00:00,24.0,27.0,9.2,10.47,,47.59359,-54.27349
2018-02-25 03:50:00+00:00,24.0,13.0,10.8,14.57,,47.59359,-54.27349
2018-02-25 04:00:00+00:00,23.0,28.0,12.91,15.02,,47.59359,-54.27349
2018-02-25 04:10:00+00:00,20.0,15.0,11.41,14.01,,47.59359,-54.27349
2018-02-25 04:20:00+00:00,21.0,30.0,10.01,11.84,,47.59359,-54.27349
2018-02-25 04:30:00+00:00,35.0,39.0,13.86,16.63,,47.59359,-54.27349
2018-02-25 04:40:00+00:00,28.0,31.0,14.51,18.69,,47.59359,-54.27349
2018-02-25 04:50:00+00:00,17.0,16.0,15.55,17.81,,47.59359,-54.27349
2018-02-25 05:00:00+00:00,17.0,21.0,13.24,16.23,,47.59359,-54.27349
2018-02-25 05:10:00+00:00,23.0,23.0,13.16,16.07,,47.59359,-54.27349
2018-02-25 05:20:00+00:00,24.0,35.0,11.65,15.37,,47.59359,-54.27349
2018-02-25 05:30:00+00:00,21.0,15.0,11.43,14.27,,47.59359,-54.27349
2018-02-25 05:40:00+00:00,38.0,38.0,13.18,15.1,,47.59359,-54.27349
2018-02-25 05:50:00+00:00,22.0,34.0,12.49,15.55,,47.59359,-54.27349
2018-02-25 06:00:00+00:00,33.0,42.0,14.55,16.82,,47.59359,-54.27349
2018-02-25 06:10:00+00:00,40.0,44.0,15.61,18.46,,47.59359,-54.27349
2018-02-25 06:20:00+00:00,47.0,53.0,13.16,14.76,,47.59359,-54.27349
2018-02-25 06:30:00+00:00,29.0,30.0,15.23,17.99,,47.59359,-54.27349
2018-02-25 06:40:00+00:00,31.0,29.0,15.34,19.42,,47.59359,-54.27349
2018-02-25 06:50:00+00:00,27.0,29.0,13.39,15.6,,47.59359,-54.27349
2018-02-25 07:00:00+00:00,20.0,30.0,13.13,15.47,,47.59359,-54.27349
2018-02-25 07:10:00+00:00,36.0,45.0,13.49,16.23,,47.59359,-54.27349
2018-02-25 07:20:00+00:00,22.0,27.0,12.91,14.06,,47.59359,-54.27349
2018-02-25 07:30:00+00:00,27.0,32.0,12.63,14.91,,47.59359,-54.27349
2018-02-25 07:40:00+00:00,21.0,19.0,11.37,13.24,,47.59359,-54.27349
2018-02-25 07:50:00+00:00,21.0,18.0,11.81,13.22,,47.59359,-54.27349
2018-02-25 08:00:00+00:00,22.0,32.0,11.46,13.82,,47.59359,-54.27349
2018-02-25 08:10:00+00:00,22.0,26.0,12.12,13.55,,47.59359,-54.27349
2018-02-25 08:20:00+00:00,20.0,26.0,11.7,13.15,,47.59359,-54.27349
2018-02-25 08:30:00+00:00,23.0,36.0,12.1,14.15,,47.59359,-54.27349
2018-02-25 08:40:00+00:00,28.0,37.0,11.69,15.14,,47.59359,-54.27349
2018-02-25 08:50:00+00:00,21.0,28.0,11.99,14.11,,47.59359,-54.27349
2018-02-25 09:00:00+00:00,24.0,16.0,12.3,15.26,,47.59359,-54.27349
2018-02-25 09:10:00+00:00,22.0,29.0,11.75,13.16,,47.59359,-54.27349
2018-02-25 09:20:00+00:00,14.0,19.0,11.19,12.99,,47.59359,-54.27349
2018-02-25 09:30:00+00:00,18.0,19.0,11.96,13.29,,47.59359,-54.27349
2018-02-25 09:40:00+00:00,20.0,18.0,11.66,13.42,,47.59359,-54.27349
2018-02-25 09:50:00+00:00,16.0,29.0,11.37,13.75,,47.59359,-54.27349
2018-02-25 10:00:00+00:00,19.0,17.0,11.42,13.0,,47.59359,-54.27349
2018-02-25 10:10:00+00:00,23.0,30.0,11.85,13.75,,47.59359,-54.27349
2018-02-25 10:20:00+00:00,20.0,30.0,12.03,13.26,,47.59359,-54.27349
2018-02-25 10:30:00+00:00,14.0,20.0,10.83,12.89,,47.59359,-54.27349
2018-02-25 10:40:00+00:00,19.0,18.0,10.76,12.58,,47.59359,-54.27349
2018-02-25 10:50:00+00:00,15.0,19.0,11.42,13.41,,47.59359,-54.27349
2018-02-25 11:00:00+00:00,6.0,3.0,10.95,12.09,,47.59359,-54.27349
2018-02-25 11:10:00+00:00,5.0,10.0,11.14,13.25,,47.59359,-54.27349
2018-02-25 11:20:00+00:00,3.0,8.0,11.54,12.94,,47.59359,-54.27349
2018-02-25 11:30:00+00:00,19.0,17.0,11.47,14.34,,47.59359,-54.27349
2018-02-25 11:40:00+00:00,14.0,16.0,11.78,13.77,,47.59359,-54.27349
2018-02-25 11:50:00+00:00,9.0,18.0,12.53,14.58,,47.59359,-54.27349
2018-02-25 12:00:00+00:00,6.0,14.0,12.41,14.16,,47.59359,-54.27349
2018-02-25 12:10:00+00:00,10.0,11.0,11.68,13.61,,47.59359,-54.27349
2018-02-25 12:20:00+00:00,7.0,6.0,11.95,13.87,,47.59359,-54.27349
2018-02-25 12:30:00+00:00,1.0,14.0,12.32,13.82,,47.59359,-54.27349
2018-02-25 12:40:00+00:00,14.0,19.0,12.35,14.33,,47.59359,-54.27349
2018-02-25 12:50:00+00:00,10.0,1.0,12.22,14.62,,47.59359,-54.27349
2018-02-25 13:00:00+00:00,15.0,9.0,12.85,14.24,,47.59359,-54.27349
2018-02-25 13:10:00+00:00,20.0,20.0,11.76,13.23,,47.59359,-54.27349
2018-02-25 13:20:00+00:00,15.0,18.0,13.59,15.13,,47.59359,-54.27349
2018-02-25 13:30:00+00:00,20.0,34.0,11.02,13.31,,47.59359,-54.27349
2018-02-25 13:40:00+00:00,21.0,21.0,12.06,13.59,,47.59359,-54.27349
2018-02-25 13:50:00+00:00,11.0,20.0,10.83,12.31,,47.59359,-54.27349
2018-02-25 14:00:00+00:00,13.0,29.0,10.14,12.41,,47.59359,-54.27349
2018-02-25 14:10:00+00:00,17.0,19.0,11.62,12.99,,47.59359,-54.27349
2018-02-25 14:20:00+00:00,9.0,3.0,11.13,12.01,,47.59359,-54.27349
2018-02-25 14:30:00+00:00,1.0,5.0,8.91,10.64,,47.59359,-54.27349
2018-02-25 14:40:00+00:00,358.0,355.0,7.26,8.8,,47.59359,-54.27349
2018-02-25 14:50:00+00:00,4.0,11.0,8.01,9.6,,47.59359,-54.27349
2018-02-25 15:00:00+00:00,355.0,352.0,8.07,9.65,,47.59359,-54.27349
2018-02-25 15:10:00+00:00,4.0,7.0,7.74,9.19,,47.59359,-54.27349
2018-02-25 15:20:00+00:00,356.0,354.0,10.82,12.82,,47.59359,-54.27349
2018-02-25 15:30:00+00:00,358.0,2.0,8.99,10.07,,47.59359,-54.27349
2018-02-25 15:40:00+00:00,12.0,10.0,10.02,11.6,,47.59359,-54.27349
2018-02-25 15:50:00+00:00,17.0,15.0,8.94,11.84,,47.59359,-54.27349
2018-02-25 16:00:00+00:00,14.0,7.0,8.08,10.68,,47.59359,-54.27349
2018-02-25 16:10:00+00:00,9.0,3.0,9.37,10.59,,47.59359,-54.27349
2018-02-25 16:20:00+00:00,13.0,15.0,7.87,9.32,,47.59359,-54.27349
2018-02-25 16:30:00+00:00,3.0,11.0,9.37,11.0,,47.59359,-54.27349
2018-02-25 16:40:00+00:00,18.0,9.0,9.81,14.2,,47.59359,-54.27349
2018-02-25 16:50:00+00:00,16.0,18.0,9.7,11.49,,47.59359,-54.27349
2018-02-25 17:00:00+00:00,5.0,7.0,10.05,11.81,,47.59359,-54.27349
2018-02-25 17:10:00+00:00,34.0,41.0,12.55,13.97,,47.59359,-54.27349
2018-02-25 17:20:00+00:00,25.0,41.0,8.65,10.74,,47.59359,-54.27349
2018-02-25 17:30:00+00:00,11.0,10.0,9.7,11.04,,47.59359,-54.27349
2018-02-25 17:40:00+00:00,16.0,10.0,9.64,12.95,,47.59359,-54.27349
2018-02-25 17:50:00+00:00,16.0,17.0,8.42,10.24,,47.59359,-54.27349
2018-02-25 18:00:00+00:00,8.0,5.0,8.45,10.41,,47.59359,-54.27349
2018-02-25 18:10:00+00:00,20.0,14.0,7.71,8.91,,47.59359,-54.27349
2018-02-25 18:20:00+00:00,15.0,13.0,7.42,8.42,,47.59359,-54.27349
2018-02-25 18:30:00+00:00,8.0,3.0,8.04,9.26,,47.59359,-54.27349
2018-02-25 18:40:00+00:00,20.0,26.0,5.48,7.16,,47.59359,-54.27349
2018-02-25 18:50:00+00:00,30.0,60.0,5.74,11.77,,47.59359,-54.27349
2018-02-25 19:00:00+00:00,57.0,57.0,12.24,13.88,,47.59359,-54.27349
2018-02-25 19:10:00+00:00,14.0,15.0,7.32,8.54,,47.59359,-54.27349
2018-02-25 19:20:00+00:00,23.0,20.0,5.72,7.13,,47.59359,-54.27349
2018-02-25 19:30:00+00:00,22.0,18.0,7.36,9.42,,47.59359,-54.27349
2018-02-25 19:40:00+00:00,34.0,42.0,7.65,9.06,,47.59359,-54.27349
2018-02-25 19:50:00+00:00,28.0,20.0,6.66,8.0,,47.59359,-54.27349
2018-02-25 20:00:00+00:00,25.0,28.0,6.06,7.12,,47.59359,-54.27349
2018-02-25 20:10:00+00:00,15.0,9.0,5.48,6.6,,47.59359,-54.27349
2018-02-25 20:20:00+00:00,18.0,16.0,7.33,8.6,,47.59359,-54.27349
2018-02-25 20:30:00+00:00,8.0,7.0,7.68,8.76,,47.59359,-54.27349
2018-02-25 20:40:00+00:00,21.0,15.0,6.59,7.98,,47.59359,-54.27349
2018-02-25 20:50:00+00:00,15.0,16.0,8.36,9.83,,47.59359,-54.27349
2018-02-25 21:00:00+00:00,22.0,18.0,7.52,9.37,,47.59359,-54.27349
2018-02-25 21:10:00+00:00,17.0,16.0,7.28,8.9,,47.59359,-54.27349
2018-02-25 21:20:00+00:00,27.0,31.0,5.64,6.5,,47.59359,-54.27349
2018-02-25 21:30:00+00:00,30.0,26.0,7.04,8.34,,47.59359,-54.27349
2018-02-25 21:40:00+00:00,22.0,17.0,6.35,7.2,,47.59359,-54.27349
2018-02-25 21:50:00+00:00,24.0,21.0,6.73,7.85,,47.59359,-54.27349
2018-02-25 22:00:00+00:00,37.0,51.0,7.63,9.23,,47.59359,-54.27349
2018-02-25 22:10:00+00:00,41.0,53.0,7.01,8.58,,47.59359,-54.27349
2018-02-25 22:20:00+00:00,48.0,56.0,9.78,12.15,,47.59359,-54.27349
2018-02-25 22:30:00+00:00,33.0,45.0,7.43,9.41,,47.59359,-54.27349
2018-02-25 22:40:00+00:00,38.0,45.0,6.53,7.51,,47.59359,-54.27349
2018-02-25 22:50:00+00:00,38.0,46.0,7.83,9.67,,47.59359,-54.27349
2018-02-25 23:00:00+00:00,21.0,32.0,6.72,8.14,,47.59359,-54.27349
2018-02-25 23:10:00+00:00,10.0,16.0,6.09,6.84,,47.59359,-54.27349
2018-02-25 23:20:00+00:00,15.0,14.0,5.61,6.87,,47.59359,-54.27349
2018-02-25 23:30:00+00:00,20.0,14.0,5.8,6.82,,47.59359,-54.27349
2018-02-25 23:40:00+00:00,23.0,20.0,5.33,6.35,,47.59359,-54.27349
2018-02-25 23:50:00+00:00,27.0,26.0,5.83,7.65,,47.59359,-54.27349
